User: anonymous   Login
Location: Muenchen
(48.1800°N, 11.5800°E)
Time: 15:07:47
(UTC+01:00)
Language:

ISS - Orbit

View from above orbital plane
View from above orbital plane
View from above satellite
View from above satellite

Ground track
Ground track

The orbit data is extracted from the following two-line orbital elements,

1 25544U 98067A   16042.95582946  .00016361  00000-0  24913-3 0  9990
2 25544  51.6447 327.5318 0006726 108.3549 355.6317 15.54633315985344
Epoch (UTC): 11 February 2016 22:56:23
Eccentricity: 0.0006726
inclination: 51.6447°
perigee height: 398 km
apogee height: 408 km
right ascension of ascending node: 327.5318°
argument of perigee: 108.3549°
revolutions per day: 15.54633315
mean anomaly at epoch: 355.6317°
orbit number at epoch: 98534

The dashed part of the orbit path shows where the satellite is in the earth's shadow,  

DLR